Showing default

OPS 3367 A, 734

Orbit data source: Space-Track

OPS 3367 A, 734 is an American payload satellite in SSO that was launched on Sun, 19 Jan 1964 UTC via a THOR SLV-2 AGENA D launch vehicle from the Air Force Western Test Range (AFWTR). Payload-class satellites include a variety of spacecraft equipped with specific instruments for various scientific and technological missions. These include communications satellites like Starlink; space stations such as the ISS; scientific satellites like the Hubble; Earth observation satellites from companies like Planet Labs, Umbra, and HawkEye 360; GPS; miniature CubeSats for education and research; and military/defense satellites.

Loading next visibility...
Identifier
734, 1964-002B
Orbit
SSO
Country
Flag of USUS
Related business
Manufacturer
RCA/East Windsor
Mission
Defense Weather
Bus & Motor
P35, Unknown motor
Mass
50 kg wet, 50 kg dry
Launch date (UTC)
1964-01-19 (62 years ago)
Launch vehicle
THOR SLV-2 AGENA D
Launch site
Air Force Western Test Range (AFWTR)
Object type
Payload
Rocket body
Debris
Shape & HBR
Cyl, 0.3 m
Radar Cross Section
0.377 m², Medium (>0.1 m² and < 1m²)

Expand to show TLE details & history
Last TLE update: 8 hours ago

TLE from 8 hours ago
0 OPS 3367 A
1 00734U 64002B   25258.61409823  .00000090  00000-0  53363-4 0  9994
2 00734  98.9647 175.5346 0013373 263.8927  96.0730 14.29584172209531
Epoch: 2025-09-15T14:44Z
TLE epoch observation values (Epoch: 2025-09-15T14:44:18.087Z)
Latitude
-0.00003°
Longitude
-40.35698°
Altitude
797.068 km
Speed
7.455 km/s
True Right ascension
11h 42m 08s
True Declination
0° 00' 00"
Sunlit
Object was in daylight at epoch
Visualization orbit readout
Latitude
Unknown
Longitude
Unknown
Altitude
Unknown
Speed
Unknown
Apparent Right ascension
Unknown
Apparent Declination
Unknown
Sunlit
N/A
Visualization observer readout
Local Sidereal Time
15:17:44
Azimuth
Unknown
Elevation
Unknown
Doppler factor
Unknown
Orbital elements
Apogee altitude
799.866 km
Perigee altitude
780.693 km
Semi-major axis
7,168.416 km
Eccentricity
0.00134
Inclination
98.9647°
RAAN
175.5346°
Arg. of periapsis
263.8927°
True anomaly
96.22536°
Mean anomaly
96.073°
Eccentric anomaly
96.14918°
Mean motion
3.57609 °/min
Orbital period
100.67 mins
BSTAR
0.000053363
Loading maneuver chart data...
Computing Atmospheric mass density...
Loading historical data...
Loading historical data...
Loading historical data...
Loading historical data...
Loading historical data...
Loading historical data...
Loading historical data...
Other satellites on launch #2 in the year 1964 (1964-01-19 UTC)

Documentation

Showing up to 5 results
|